"read_dt","SO2 (ppb)","flags","PMT voltage (V)","lamp voltage (V)","lamp intensity (Hz)","internal temp (C)","react chamber temp (C)","sample flow (l/min)","pres (mmHg)","SO2 bkg (ppb)","SO2 coefficient"
2014-08-03 00:00:00,1877E-3,5C000000,-0724,0829,12108,029.8,045.6,0.473,729.5,01.19,0.508
2014-08-03 00:01:00,1790E-3,5C000000,-0724,0830,12163,029.8,045.5,0.473,729.5,01.19,0.508
2014-08-03 00:02:00,1805E-3,5C000000,-0724,0830,12316,029.8,045.5,0.473,729.6,01.19,0.508
2014-08-03 00:03:00,1865E-3,5C000000,-0724,0830,12118,029.8,045.6,0.473,729.5,01.19,0.508
2014-08-03 00:04:00,1869E-3,5C000000,-0724,0830,12294,029.8,045.6,0.473,729.6,01.19,0.508
2014-08-03 00:05:00,1741E-3,5C000000,-0724,0829,12181,029.8,045.5,0.473,729.5,01.19,0.508
2014-08-03 00:06:00,1942E-3,5C000000,-0724,0831,12182,029.8,045.6,0.473,729.5,01.19,0.508
2014-08-03 00:07:00,1945E-3,5C000000,-0724,0831,12220,029.8,045.5,0.473,729.6,01.19,0.508
2014-08-03 00:08:00,1695E-3,5C000000,-0724,0830,12288,029.8,045.5,0.473,729.6,01.19,0.508
2014-08-03 00:09:00,1799E-3,5C000000,-0724,0830,12101,029.8,045.5,0.473,729.5,01.19,0.508
2014-08-03 00:10:00,1820E-3,5C000000,-0724,0831,12201,029.8,045.6,0.473,729.5,01.19,0.508
2014-08-03 00:11:00,1710E-3,5C000000,-0724,0830,12250,029.8,045.6,0.473,729.5,01.19,0.508
2014-08-03 00:12:00,1849E-3,5C000000,-0724,0830,12291,029.8,045.6,0.473,729.5,01.19,0.508
2014-08-03 00:13:00,1989E-3,5C000000,-0724,0829,12200,029.8,045.5,0.473,729.5,01.19,0.508
2014-08-03 00:14:00,1969E-3,5C000000,-0724,0830,12259,029.8,045.5,0.473,729.4,01.19,0.508
2014-08-03 00:15:00,1727E-3,5C000000,-0724,0830,12160,029.8,045.5,0.473,729.5,01.19,0.508
2014-08-03 00:16:00,1852E-3,5C000000,-0724,0831,12050,029.9,045.5,0.473,729.5,01.19,0.508
2014-08-03 00:17:00,1882E-3,5C000000,-0724,0830,12346,029.8,045.6,0.473,729.5,01.19,0.508
2014-08-03 00:18:00,1810E-3,5C000000,-0724,0830,12198,029.8,045.5,0.473,729.5,01.19,0.508
2014-08-03 00:19:00,1911E-3,5C000000,-0724,0830,12098,029.8,045.6,0.473,729.5,01.19,0.508
2014-08-03 00:20:00,1702E-3,5C000000,-0724,0830,12282,029.8,045.5,0.473,729.5,01.19,0.508
2014-08-03 00:21:00,1704E-3,5C000000,-0724,0831,12211,029.8,045.6,0.473,729.5,01.19,0.508
2014-08-03 00:22:00,1879E-3,5C000000,-0724,0831,12139,029.8,045.5,0.473,729.5,01.19,0.508
2014-08-03 00:23:00,1850E-3,5C000000,-0724,0830,12194,029.8,045.5,0.473,729.5,01.19,0.508
2014-08-03 00:24:00,1888E-3,5C000000,-0724,0831,12390,029.8,045.6,0.473,729.5,01.19,0.508
2014-08-03 00:25:00,1878E-3,5C000000,-0724,0830,12278,029.8,045.6,0.473,729.5,01.19,0.508
2014-08-03 00:26:00,1835E-3,5C000000,-0724,0830,12406,029.8,045.6,0.473,729.5,01.19,0.508
2014-08-03 00:27:00,1682E-3,5C000000,-0724,0830,12260,029.8,045.6,0.473,729.5,01.19,0.508
2014-08-03 00:28:00,1830E-3,5C000000,-0724,0830,12206,029.8,045.6,0.473,729.5,01.19,0.508
2014-08-03 00:29:00,1827E-3,5C000000,-0724,0830,12277,029.8,045.6,0.473,729.4,01.19,0.508
2014-08-03 00:30:00,1819E-3,5C000000,-0724,0831,12327,029.8,045.6,0.473,729.4,01.19,0.508
2014-08-03 00:31:00,1953E-3,5C000000,-0724,0831,12172,029.8,045.5,0.473,729.4,01.19,0.508
2014-08-03 00:32:00,1863E-3,5C000000,-0724,0829,12054,029.8,045.6,0.473,729.4,01.19,0.508
2014-08-03 00:33:00,1811E-3,5C000000,-0724,0831,12200,029.8,045.5,0.473,729.4,01.19,0.508
2014-08-03 00:34:00,1846E-3,5C000000,-0724,0831,12298,029.9,045.5,0.473,729.4,01.19,0.508
2014-08-03 00:35:00,1959E-3,5C000000,-0724,0831,12047,029.8,045.6,0.473,729.4,01.19,0.508
2014-08-03 00:36:00,1831E-3,5C000000,-0724,0830,12131,029.8,045.5,0.473,729.4,01.19,0.508
2014-08-03 00:37:00,1907E-3,5C000000,-0724,0830,12148,029.8,045.5,0.473,729.3,01.19,0.508
2014-08-03 00:38:00,1929E-3,5C000000,-0724,0829,12245,029.8,045.6,0.473,729.3,01.19,0.508
2014-08-03 00:39:00,1967E-3,5C000000,-0724,0830,12180,029.8,045.6,0.473,729.3,01.19,0.508
2014-08-03 00:40:00,1890E-3,5C000000,-0724,0831,12145,029.8,045.5,0.473,729.3,01.19,0.508
2014-08-03 00:41:00,1892E-3,5C000000,-0724,0830,12285,029.8,045.5,0.473,729.3,01.19,0.508
2014-08-03 00:42:00,1853E-3,5C000000,-0724,0830,12225,029.8,045.6,0.473,729.3,01.19,0.508
2014-08-03 00:43:00,1838E-3,5C000000,-0724,0831,12256,029.9,045.5,0.473,729.3,01.19,0.508
2014-08-03 00:44:00,1855E-3,5C000000,-0724,0831,12311,029.9,045.5,0.473,729.3,01.19,0.508
2014-08-03 00:45:00,1887E-3,5C000000,-0724,0830,12157,029.9,045.6,0.473,729.3,01.19,0.508
2014-08-03 00:46:00,1784E-3,5C000000,-0724,0831,12207,029.8,045.5,0.473,729.3,01.19,0.508
2014-08-03 00:47:00,1844E-3,5C000000,-0724,0831,12279,029.9,045.5,0.473,729.3,01.19,0.508
2014-08-03 00:48:00,1896E-3,5C000000,-0724,0830,12246,029.9,045.5,0.473,729.3,01.19,0.508
2014-08-03 00:49:00,1961E-3,5C000000,-0724,0831,12153,029.9,045.5,0.473,729.3,01.19,0.508
2014-08-03 00:50:00,1767E-3,5C000000,-0724,0830,12204,029.9,045.5,0.473,729.3,01.19,0.508
2014-08-03 00:51:00,1921E-3,5C000000,-0724,0831,12233,029.9,045.5,0.473,729.3,01.19,0.508
2014-08-03 00:52:00,1985E-3,5C000000,-0724,0831,12259,029.9,045.5,0.473,729.3,01.19,0.508
2014-08-03 00:53:00,1944E-3,5C000000,-0724,0831,12133,029.9,045.5,0.473,729.3,01.19,0.508
2014-08-03 00:54:00,1966E-3,5C000000,-0724,0831,12303,029.9,045.6,0.472,729.3,01.19,0.508
2014-08-03 00:55:00,1937E-3,5C000000,-0724,0830,12206,029.9,045.5,0.472,729.3,01.19,0.508
2014-08-03 00:56:00,1930E-3,5C000000,-0724,0830,12289,029.8,045.6,0.472,729.3,01.19,0.508
2014-08-03 00:57:00,1938E-3,5C000000,-0724,0831,12162,029.9,045.5,0.472,729.3,01.19,0.508
2014-08-03 00:58:00,1926E-3,5C000000,-0724,0831,12336,029.9,045.6,0.472,729.3,01.19,0.508
2014-08-03 00:59:00,1874E-3,5C000000,-0724,0830,12130,029.9,045.5,0.472,729.2,01.19,0.508
2014-08-03 01:00:00,1770E-3,5C000000,-0724,0831,12244,029.9,045.6,0.472,729.3,01.19,0.508
2014-08-03 01:01:00,1909E-3,5C000000,-0724,0831,12218,029.9,045.5,0.472,729.2,01.19,0.508
2014-08-03 01:02:00,1803E-3,5C000000,-0724,0831,12157,029.9,045.5,0.472,729.2,01.19,0.508
2014-08-03 01:03:00,1787E-3,5C000000,-0724,0830,12201,029.9,045.6,0.472,729.2,01.19,0.508
2014-08-03 01:04:00,1895E-3,5C000000,-0724,0830,12155,029.9,045.5,0.472,729.2,01.19,0.508
2014-08-03 01:05:00,1774E-3,5C000000,-0724,0831,11967,029.9,045.6,0.472,729.2,01.19,0.508
2014-08-03 01:06:00,1927E-3,5C000000,-0724,0831,12188,029.9,045.5,0.472,729.2,01.19,0.508
2014-08-03 01:07:00,1947E-3,5C000000,-0724,0831,12228,029.9,045.5,0.472,729.2,01.19,0.508
2014-08-03 01:08:00,1729E-3,5C000000,-0724,0830,12164,029.9,045.6,0.472,729.1,01.19,0.508
2014-08-03 01:09:00,1880E-3,5C000000,-0724,0831,12217,029.9,045.6,0.472,729.1,01.19,0.508
2014-08-03 01:10:00,1860E-3,5C000000,-0724,0831,12279,029.9,045.6,0.473,729.1,01.19,0.508
2014-08-03 01:11:00,1856E-3,5C000000,-0724,0831,12165,029.9,045.6,0.473,729.1,01.19,0.508
2014-08-03 01:12:00,1749E-3,5C000000,-0724,0831,12225,029.9,045.6,0.473,729.1,01.19,0.508
2014-08-03 01:13:00,1821E-3,5C000000,-0724,0830,12195,029.9,045.6,0.473,729.1,01.19,0.508
2014-08-03 01:14:00,1811E-3,5C000000,-0724,0830,12277,029.9,045.6,0.473,729.1,01.19,0.508
2014-08-03 01:15:00,1761E-3,5C000000,-0724,0831,12108,029.9,045.6,0.473,729.1,01.19,0.508
2014-08-03 01:16:00,1867E-3,5C000000,-0724,0830,12181,029.9,045.6,0.473,729.1,01.19,0.508
2014-08-03 01:17:00,1799E-3,5C000000,-0724,0831,12227,029.9,045.6,0.473,729.1,01.19,0.508
2014-08-03 01:18:00,1864E-3,5C000000,-0724,0831,12347,029.9,045.6,0.473,729.1,01.19,0.508
2014-08-03 01:19:00,1904E-3,5C000000,-0724,0831,12207,029.9,045.6,0.473,729.1,01.19,0.508
2014-08-03 01:20:00,1882E-3,5C000000,-0724,0830,12165,029.9,045.6,0.473,729.1,01.19,0.508
2014-08-03 01:21:00,1940E-3,5C000000,-0724,0831,12126,029.9,045.6,0.473,729.1,01.19,0.508
2014-08-03 01:22:00,1862E-3,5C000000,-0724,0830,12121,029.9,045.5,0.473,729.0,01.19,0.508
2014-08-03 01:23:00,1781E-3,5C000000,-0724,0830,12152,029.9,045.5,0.473,729.1,01.19,0.508
2014-08-03 01:24:00,1824E-3,5C000000,-0724,0829,12238,029.9,045.5,0.473,729.1,01.19,0.508
2014-08-03 01:25:00,1884E-3,5C000000,-0724,0831,12280,029.9,045.5,0.473,729.0,01.19,0.508
2014-08-03 01:26:00,1848E-3,5C000000,-0724,0832,12287,029.9,045.5,0.473,729.0,01.19,0.508
2014-08-03 01:27:00,1853E-3,5C000000,-0724,0831,12238,029.9,045.6,0.472,729.0,01.19,0.508
2014-08-03 01:28:00,1853E-3,5C000000,-0724,0830,12342,029.9,045.5,0.472,729.0,01.19,0.508
2014-08-03 01:29:00,1797E-3,5C000000,-0724,0831,12186,029.9,045.5,0.472,729.0,01.19,0.508
2014-08-03 01:30:00,1820E-3,5C000000,-0724,0830,12408,029.9,045.5,0.472,729.0,01.19,0.508
2014-08-03 01:31:00,1755E-3,5C000000,-0724,0831,12139,029.9,045.5,0.472,729.0,01.19,0.508
2014-08-03 01:32:00,1826E-3,5C000000,-0724,0831,12121,029.9,045.6,0.472,729.0,01.19,0.508
2014-08-03 01:33:00,1876E-3,5C000000,-0724,0830,12233,029.9,045.5,0.472,729.0,01.19,0.508
2014-08-03 01:34:00,1942E-3,5C000000,-0724,0831,12102,029.9,045.6,0.472,729.0,01.19,0.508
2014-08-03 01:35:00,1824E-3,5C000000,-0724,0831,12114,029.9,045.6,0.472,729.0,01.19,0.508
2014-08-03 01:36:00,1863E-3,5C000000,-0724,0831,12453,029.9,045.6,0.472,729.0,01.19,0.508
2014-08-03 01:37:00,1873E-3,5C000000,-0724,0830,12186,029.9,045.6,0.472,729.0,01.19,0.508
2014-08-03 01:38:00,1879E-3,5C000000,-0724,0829,12241,029.9,045.5,0.472,729.0,01.19,0.508
2014-08-03 01:39:00,1778E-3,5C000000,-0724,0830,12173,029.8,045.6,0.472,729.0,01.19,0.508
2014-08-03 01:40:00,1859E-3,5C000000,-0724,0830,12211,029.8,045.6,0.472,729.0,01.19,0.508
2014-08-03 01:41:00,1842E-3,5C000000,-0724,0831,12378,029.8,045.5,0.473,729.0,01.19,0.508
2014-08-03 01:42:00,1851E-3,5C000000,-0724,0831,12368,029.8,045.6,0.473,729.0,01.19,0.508
2014-08-03 01:43:00,1972E-3,5C000000,-0724,0829,12126,029.7,045.6,0.473,729.0,01.19,0.508
2014-08-03 01:44:00,1771E-3,5C000000,-0724,0831,11989,029.7,045.5,0.473,729.0,01.19,0.508
2014-08-03 01:45:00,1820E-3,5C000000,-0724,0830,12067,029.7,045.6,0.473,729.0,01.19,0.508
2014-08-03 01:46:00,1917E-3,5C000000,-0724,0830,12229,029.7,045.5,0.473,729.0,01.19,0.508
2014-08-03 01:47:00,1866E-3,5C000000,-0724,0830,12035,029.6,045.5,0.473,729.0,01.19,0.508
2014-08-03 01:48:00,1775E-3,5C000000,-0724,0830,12194,029.6,045.5,0.473,729.0,01.19,0.508
2014-08-03 01:49:00,1726E-3,5C000000,-0724,0830,12216,029.6,045.5,0.473,729.0,01.19,0.508
2014-08-03 01:50:00,1864E-3,5C000000,-0724,0830,11986,029.6,045.5,0.473,729.0,01.19,0.508
2014-08-03 01:51:00,1761E-3,5C000000,-0724,0830,12183,029.6,045.5,0.473,729.0,01.19,0.508
2014-08-03 01:52:00,1824E-3,5C000000,-0724,0831,12085,029.6,045.5,0.473,729.0,01.19,0.508
2014-08-03 01:53:00,1803E-3,5C000000,-0724,0831,12166,029.6,045.5,0.473,729.0,01.19,0.508
2014-08-03 01:54:00,1780E-3,5C000000,-0724,0832,12311,029.6,045.6,0.473,729.0,01.19,0.508
2014-08-03 01:55:00,1856E-3,5C000000,-0724,0831,12063,029.6,045.5,0.473,728.9,01.19,0.508
2014-08-03 01:56:00,1814E-3,5C000000,-0724,0829,12038,029.6,045.5,0.473,728.9,01.19,0.508
2014-08-03 01:57:00,1935E-3,5C000000,-0724,0831,12086,029.6,045.6,0.473,729.0,01.19,0.508
2014-08-03 01:58:00,1701E-3,5C000000,-0724,0831,12150,029.6,045.5,0.473,728.9,01.19,0.508
2014-08-03 01:59:00,1927E-3,5C000000,-0724,0830,12070,029.6,045.5,0.473,729.0,01.19,0.508
2014-08-03 02:00:00,1700E-3,5C000000,-0724,0832,12264,029.6,045.6,0.473,729.0,01.19,0.508
2014-08-03 02:01:00,1838E-3,5C000000,-0724,0831,12234,029.6,045.5,0.473,729.0,01.19,0.508
2014-08-03 02:02:00,1913E-3,5C000000,-0724,0830,12127,029.6,045.5,0.473,728.9,01.19,0.508
2014-08-03 02:03:00,1792E-3,5C000000,-0724,0830,12164,029.6,045.6,0.473,728.9,01.19,0.508
2014-08-03 02:04:00,1945E-3,5C000000,-0724,0830,12185,029.6,045.5,0.473,728.9,01.19,0.508
2014-08-03 02:05:00,1914E-3,5C000000,-0724,0831,12071,029.6,045.5,0.473,728.9,01.19,0.508
2014-08-03 02:06:00,1920E-3,5C000000,-0724,0830,12169,029.6,045.5,0.473,728.9,01.19,0.508
2014-08-03 02:07:00,1970E-3,5C000000,-0724,0830,12337,029.6,045.5,0.473,728.9,01.19,0.508
2014-08-03 02:08:00,1794E-3,5C000000,-0724,0830,12142,029.6,045.5,0.473,728.9,01.19,0.508
2014-08-03 02:09:00,1814E-3,5C000000,-0724,0830,12177,029.6,045.5,0.473,728.9,01.19,0.508
2014-08-03 02:10:00,1898E-3,5C000000,-0724,0829,12103,029.6,045.5,0.473,728.8,01.19,0.508
2014-08-03 02:11:00,1852E-3,5C000000,-0724,0830,12257,029.6,045.5,0.473,728.8,01.19,0.508
2014-08-03 02:12:00,1822E-3,5C000000,-0724,0830,12212,029.6,045.5,0.473,728.8,01.19,0.508
2014-08-03 02:13:00,1853E-3,5C000000,-0724,0830,12365,029.6,045.5,0.473,728.9,01.19,0.508
2014-08-03 02:14:00,1772E-3,5C000000,-0724,0831,12150,029.6,045.5,0.473,728.9,01.19,0.508
2014-08-03 02:15:00,1804E-3,5C000000,-0724,0830,11850,029.6,045.5,0.473,728.9,01.19,0.508
2014-08-03 02:16:00,1827E-3,5C000000,-0724,0830,12223,029.6,045.5,0.473,728.8,01.19,0.508
2014-08-03 02:17:00,1820E-3,5C000000,-0724,0831,12069,029.6,045.5,0.473,728.8,01.19,0.508
2014-08-03 02:18:00,1906E-3,5C000000,-0724,0831,12149,029.6,045.5,0.473,728.8,01.19,0.508
2014-08-03 02:19:00,1925E-3,5C000000,-0724,0830,12330,029.6,045.5,0.473,728.8,01.19,0.508
2014-08-03 02:20:00,1893E-3,5C000000,-0724,0831,12378,029.6,045.5,0.473,728.8,01.19,0.508
2014-08-03 02:21:00,1794E-3,5C000000,-0724,0830,12147,029.6,045.5,0.473,728.8,01.19,0.508
2014-08-03 02:22:00,1845E-3,5C000000,-0724,0831,12191,029.6,045.5,0.473,728.8,01.19,0.508
2014-08-03 02:23:00,1788E-3,5C000000,-0724,0830,12162,029.6,045.5,0.473,728.8,01.19,0.508
2014-08-03 02:24:00,1883E-3,5C000000,-0724,0830,12288,029.6,045.5,0.473,728.7,01.19,0.508
2014-08-03 02:25:00,1818E-3,5C000000,-0724,0831,12186,029.6,045.6,0.473,728.8,01.19,0.508
2014-08-03 02:26:00,1951E-3,5C000000,-0724,0830,12208,029.7,045.5,0.473,728.7,01.19,0.508
2014-08-03 02:27:00,1819E-3,5C000000,-0724,0830,12261,029.6,045.5,0.473,728.8,01.19,0.508
2014-08-03 02:28:00,1875E-3,5C000000,-0724,0831,12107,029.6,045.5,0.473,728.7,01.19,0.508
2014-08-03 02:29:00,2079E-3,5C000000,-0724,0830,11969,029.7,045.5,0.473,728.7,01.19,0.508
2014-08-03 02:30:00,1857E-3,5C000000,-0724,0830,12238,029.6,045.5,0.473,728.7,01.19,0.508
2014-08-03 02:31:00,1795E-3,5C000000,-0724,0831,12111,029.7,045.5,0.473,728.7,01.19,0.508
2014-08-03 02:32:00,1922E-3,5C000000,-0724,0831,12073,029.6,045.6,0.473,728.7,01.19,0.508
2014-08-03 02:33:00,1796E-3,5C000000,-0724,0830,12233,029.7,045.6,0.473,728.7,01.19,0.508
2014-08-03 02:34:00,1982E-3,5C000000,-0724,0831,12217,029.7,045.6,0.473,728.7,01.19,0.508
2014-08-03 02:35:00,1891E-3,5C000000,-0724,0831,11982,029.7,045.5,0.473,728.7,01.19,0.508
2014-08-03 02:36:00,1796E-3,5C000000,-0724,0830,12074,029.7,045.6,0.473,728.7,01.19,0.508
2014-08-03 02:37:00,1769E-3,5C000000,-0724,0830,12308,029.7,045.6,0.473,728.6,01.19,0.508
2014-08-03 02:38:00,1740E-3,5C000000,-0724,0830,11910,029.7,045.6,0.473,728.6,01.19,0.508
2014-08-03 02:39:00,1768E-3,5C000000,-0724,0831,12247,029.7,045.6,0.473,728.6,01.19,0.508
2014-08-03 02:40:00,1803E-3,5C000000,-0724,0830,12071,029.7,045.6,0.473,728.6,01.19,0.508
2014-08-03 02:41:00,1847E-3,5C000000,-0724,0830,12301,029.7,045.6,0.473,728.6,01.19,0.508
2014-08-03 02:42:00,1890E-3,5C000000,-0724,0830,12233,029.7,045.6,0.473,728.6,01.19,0.508
2014-08-03 02:43:00,2022E-3,5C000000,-0724,0830,12135,029.7,045.5,0.473,728.6,01.19,0.508
2014-08-03 02:44:00,1935E-3,5C000000,-0724,0830,11918,029.7,045.5,0.472,728.6,01.19,0.508
2014-08-03 02:45:00,1864E-3,5C000000,-0724,0831,12215,029.7,045.5,0.473,728.6,01.19,0.508
2014-08-03 02:46:00,1896E-3,5C000000,-0724,0830,12212,029.7,045.5,0.473,728.6,01.19,0.508
2014-08-03 02:47:00,1830E-3,5C000000,-0724,0831,12158,029.7,045.5,0.473,728.5,01.19,0.508
2014-08-03 02:48:00,1781E-3,5C000000,-0724,0831,12128,029.7,045.5,0.473,728.5,01.19,0.508
2014-08-03 02:49:00,1829E-3,5C000000,-0724,0830,12252,029.7,045.6,0.472,728.5,01.19,0.508
2014-08-03 02:50:00,1802E-3,5C000000,-0724,0830,12234,029.7,045.5,0.473,728.5,01.19,0.508
2014-08-03 02:51:00,1909E-3,5C000000,-0724,0831,12274,029.7,045.5,0.473,728.5,01.19,0.508
2014-08-03 02:52:00,1872E-3,5C000000,-0724,0830,12113,029.7,045.5,0.473,728.5,01.19,0.508
2014-08-03 02:53:00,2042E-3,5C000000,-0724,0830,12317,029.7,045.5,0.473,728.5,01.19,0.508
2014-08-03 02:54:00,1878E-3,5C000000,-0724,0830,12164,029.7,045.5,0.472,728.5,01.19,0.508
2014-08-03 02:55:00,1888E-3,5C000000,-0724,0830,12039,029.8,045.6,0.473,728.5,01.19,0.508
2014-08-03 02:56:00,1896E-3,5C000000,-0724,0830,12101,029.7,045.6,0.473,728.5,01.19,0.508
2014-08-03 02:57:00,1850E-3,5C000000,-0724,0830,12063,029.7,045.6,0.473,728.5,01.19,0.508
2014-08-03 02:58:00,1943E-3,5C000000,-0724,0830,12368,029.7,045.6,0.472,728.4,01.19,0.508
2014-08-03 02:59:00,1827E-3,5C000000,-0724,0829,12281,029.8,045.5,0.472,728.5,01.19,0.508
2014-08-03 03:00:00,1931E-3,5C000000,-0724,0830,12262,029.8,045.6,0.473,728.5,01.19,0.508
2014-08-03 03:01:00,1870E-3,5C000000,-0724,0830,12346,029.8,045.5,0.473,728.5,01.19,0.508
2014-08-03 03:02:00,1862E-3,5C000000,-0724,0830,12189,029.7,045.6,0.473,728.5,01.19,0.508
2014-08-03 03:03:00,1820E-3,5C000000,-0724,0830,12306,029.8,045.6,0.472,728.5,01.19,0.508
2014-08-03 03:04:00,1902E-3,5C000000,-0724,0830,12140,029.8,045.6,0.472,728.6,01.19,0.508
2014-08-03 03:05:00,1990E-3,5C000000,-0724,0830,12078,029.8,045.6,0.473,728.6,01.19,0.508
2014-08-03 03:06:00,1884E-3,5C000000,-0724,0829,12163,029.8,045.6,0.473,728.5,01.19,0.508
2014-08-03 03:07:00,1842E-3,5C000000,-0724,0829,12075,029.8,045.6,0.473,728.5,01.19,0.508
2014-08-03 03:08:00,1927E-3,5C000000,-0724,0830,12319,029.8,045.5,0.472,728.5,01.19,0.508
2014-08-03 03:09:00,1969E-3,5C000000,-0724,0830,11880,029.8,045.5,0.472,728.5,01.19,0.508
2014-08-03 03:10:00,1780E-3,5C000000,-0724,0831,11935,029.8,045.5,0.473,728.5,01.19,0.508
2014-08-03 03:11:00,1765E-3,5C000000,-0724,0830,12189,029.8,045.6,0.473,728.5,01.19,0.508
2014-08-03 03:12:00,1966E-3,5C000000,-0724,0831,12286,029.8,045.5,0.473,728.5,01.19,0.508
2014-08-03 03:13:00,1804E-3,5C000000,-0724,0830,12368,029.8,045.5,0.472,728.5,01.19,0.508
2014-08-03 03:14:00,1904E-3,5C000000,-0724,0830,12377,029.8,045.5,0.472,728.5,01.19,0.508
2014-08-03 03:15:00,1917E-3,5C000000,-0724,0830,12349,029.8,045.5,0.472,728.5,01.19,0.508
2014-08-03 03:16:00,1719E-3,5C000000,-0724,0831,12328,029.8,045.6,0.473,728.5,01.19,0.508
2014-08-03 03:17:00,1842E-3,5C000000,-0724,0830,12131,029.8,045.6,0.473,728.4,01.19,0.508
2014-08-03 03:18:00,1732E-3,5C000000,-0724,0830,12034,029.8,045.5,0.473,728.5,01.19,0.508
2014-08-03 03:19:00,1798E-3,5C000000,-0724,0830,12237,029.8,045.5,0.472,728.5,01.19,0.508
2014-08-03 03:20:00,1939E-3,5C000000,-0724,0830,12192,029.8,045.5,0.472,728.5,01.19,0.508
2014-08-03 03:21:00,1902E-3,5C000000,-0724,0830,12261,029.8,045.6,0.473,728.5,01.19,0.508
2014-08-03 03:22:00,1835E-3,5C000000,-0724,0830,12187,029.8,045.5,0.473,728.4,01.19,0.508
2014-08-03 03:23:00,1876E-3,5C000000,-0724,0830,12281,029.8,045.5,0.473,728.4,01.19,0.508
2014-08-03 03:24:00,1800E-3,5C000000,-0724,0830,12056,029.8,045.5,0.473,728.4,01.19,0.508
2014-08-03 03:25:00,1808E-3,5C000000,-0724,0831,12245,029.9,045.5,0.472,728.4,01.19,0.508
2014-08-03 03:26:00,1759E-3,5C000000,-0724,0830,12261,029.8,045.6,0.472,728.4,01.19,0.508
2014-08-03 03:27:00,1919E-3,5C000000,-0724,0829,12105,029.8,045.6,0.472,728.4,01.19,0.508
2014-08-03 03:28:00,1979E-3,5C000000,-0724,0829,12184,029.9,045.6,0.473,728.4,01.19,0.508
2014-08-03 03:29:00,1840E-3,5C000000,-0724,0830,12171,029.8,045.6,0.473,728.4,01.19,0.508
2014-08-03 03:30:00,1864E-3,5C000000,-0724,0830,12168,029.9,045.5,0.473,728.4,01.19,0.508
2014-08-03 03:31:00,1709E-3,5C000000,-0724,0830,12140,029.9,045.5,0.472,728.4,01.19,0.508
2014-08-03 03:32:00,1773E-3,5C000000,-0724,0829,12260,029.9,045.6,0.472,728.4,01.19,0.508
2014-08-03 03:33:00,1943E-3,5C000000,-0724,0829,12167,029.9,045.6,0.472,728.4,01.19,0.508
2014-08-03 03:34:00,1854E-3,5C000000,-0724,0830,12243,029.9,045.6,0.472,728.4,01.19,0.508
2014-08-03 03:35:00,1905E-3,5C000000,-0724,0830,12199,029.9,045.6,0.473,728.4,01.19,0.508
2014-08-03 03:36:00,1784E-3,5C000000,-0724,0830,12237,029.9,045.6,0.473,728.4,01.19,0.508
2014-08-03 03:37:00,1838E-3,5C000000,-0724,0830,12216,029.9,045.6,0.473,728.4,01.19,0.508
2014-08-03 03:38:00,1768E-3,5C000000,-0724,0831,12302,029.9,045.6,0.472,728.4,01.19,0.508
2014-08-03 03:39:00,1724E-3,5C000000,-0724,0831,12257,029.9,045.6,0.472,728.4,01.19,0.508
2014-08-03 03:40:00,1897E-3,5C000000,-0724,0829,12282,029.9,045.5,0.472,728.3,01.19,0.508
2014-08-03 03:41:00,1925E-3,5C000000,-0724,0830,12330,029.9,045.6,0.472,728.4,01.19,0.508
2014-08-03 03:42:00,2011E-3,5C000000,-0724,0831,12133,029.9,045.6,0.473,728.4,01.19,0.508
2014-08-03 03:43:00,1757E-3,5C000000,-0724,0829,12158,029.9,045.6,0.473,728.4,01.19,0.508
2014-08-03 03:44:00,1931E-3,5C000000,-0724,0829,12222,029.9,045.6,0.472,728.4,01.19,0.508
2014-08-03 03:45:00,1851E-3,5C000000,-0724,0830,12263,029.9,045.6,0.472,728.4,01.19,0.508
2014-08-03 03:46:00,1828E-3,5C000000,-0724,0830,12208,029.9,045.6,0.472,728.3,01.19,0.508
2014-08-03 03:47:00,1852E-3,5C000000,-0724,0830,12092,029.9,045.5,0.472,728.3,01.19,0.508
2014-08-03 03:48:00,1786E-3,5C000000,-0724,0831,12363,029.9,045.6,0.473,728.4,01.19,0.508
2014-08-03 03:49:00,1851E-3,5C000000,-0724,0830,12236,029.9,045.6,0.473,728.4,01.19,0.508
2014-08-03 03:50:00,1958E-3,5C000000,-0724,0830,12295,029.9,045.5,0.473,728.4,01.19,0.508
2014-08-03 03:51:00,1847E-3,5C000000,-0724,0829,12226,029.9,045.5,0.472,728.4,01.19,0.508
2014-08-03 03:52:00,1762E-3,5C000000,-0724,0830,12130,029.9,045.6,0.472,728.4,01.19,0.508
2014-08-03 03:53:00,1944E-3,5C000000,-0724,0831,12221,029.9,045.6,0.472,728.3,01.19,0.508
2014-08-03 03:54:00,1870E-3,5C000000,-0724,0830,12202,030.0,045.6,0.472,728.3,01.19,0.508
2014-08-03 03:55:00,1810E-3,5C000000,-0724,0830,12252,030.0,045.6,0.473,728.3,01.19,0.508
2014-08-03 03:56:00,1769E-3,5C000000,-0724,0829,12155,029.9,045.6,0.472,728.4,01.19,0.508
2014-08-03 03:57:00,1817E-3,5C000000,-0724,0830,12104,029.9,045.6,0.472,728.4,01.19,0.508
2014-08-03 03:58:00,1883E-3,5C000000,-0724,0830,12075,029.9,045.5,0.472,728.4,01.19,0.508
2014-08-03 03:59:00,1735E-3,5C000000,-0724,0830,12215,029.9,045.6,0.472,728.4,01.19,0.508
2014-08-03 04:00:00,1828E-3,5C000000,-0724,0830,12092,029.9,045.5,0.472,728.4,01.19,0.508
2014-08-03 04:01:00,1780E-3,5C000000,-0724,0831,12298,029.8,045.5,0.472,728.4,01.19,0.508
2014-08-03 04:02:00,1787E-3,5C000000,-0724,0829,12200,029.8,045.6,0.473,728.4,01.19,0.508
2014-08-03 04:03:00,1776E-3,5C000000,-0724,0829,12270,029.8,045.6,0.473,728.4,01.19,0.508
2014-08-03 04:04:00,1772E-3,5C000000,-0724,0830,12157,029.8,045.6,0.473,728.4,01.19,0.508
2014-08-03 04:05:00,1790E-3,5C000000,-0724,0829,12266,029.8,045.6,0.473,728.4,01.19,0.508
2014-08-03 04:06:00,1870E-3,5C000000,-0724,0831,12271,029.8,045.6,0.472,728.3,01.19,0.508
2014-08-03 04:07:00,1849E-3,5C000000,-0724,0830,12217,029.8,045.5,0.472,728.3,01.19,0.508
2014-08-03 04:08:00,1960E-3,5C000000,-0724,0830,12278,029.8,045.5,0.472,728.3,01.19,0.508
2014-08-03 04:09:00,1842E-3,5C000000,-0724,0829,12098,029.8,045.5,0.473,728.4,01.19,0.508
2014-08-03 04:10:00,1747E-3,5C000000,-0724,0829,12127,029.8,045.6,0.473,728.4,01.19,0.508
2014-08-03 04:11:00,1932E-3,5C000000,-0724,0829,12092,029.8,045.6,0.473,728.4,01.19,0.508
2014-08-03 04:12:00,1980E-3,5C000000,-0724,0831,12201,029.8,045.5,0.472,728.4,01.19,0.508
2014-08-03 04:13:00,1904E-3,5C000000,-0724,0830,12376,029.8,045.6,0.472,728.3,01.19,0.508
2014-08-03 04:14:00,1791E-3,5C000000,-0724,0830,12273,029.8,045.6,0.472,728.3,01.19,0.508
2014-08-03 04:15:00,1843E-3,5C000000,-0724,0830,12155,029.8,045.5,0.473,728.4,01.19,0.508
2014-08-03 04:16:00,1862E-3,5C000000,-0724,0829,12020,029.8,045.6,0.473,728.4,01.19,0.508
2014-08-03 04:17:00,1812E-3,5C000000,-0724,0829,12171,029.8,045.6,0.473,728.4,01.19,0.508
2014-08-03 04:18:00,1895E-3,5C000000,-0724,0830,12102,029.8,045.6,0.473,728.4,01.19,0.508
2014-08-03 04:19:00,1923E-3,5C000000,-0724,0830,12202,029.8,045.5,0.472,728.4,01.19,0.508
2014-08-03 04:20:00,1781E-3,5C000000,-0724,0830,12214,029.8,045.5,0.472,728.4,01.19,0.508